QPF
0.00 0.00 0.00 0.00 0.00 0.00 0.00 0.00 0.00 0.00 0.00 0.00 0.00 0.00 0.00 0.00 0.00 0.00 0.00 0.00 0.00 0.00 0.00 0.00 0.00 0.00 0.00 0.00 0.00 0.00 0.01 0.00
0.00 0.00 0.00 0.00 0.00 0.00 0.00 0.00 0.00 0.00 0.00 0.00 0.00 0.00 0.00 0.00 0.00 0.00 0.00 0.00 0.00 0.00 0.00 0.00 0.00 0.00 0.00 0.00 0.00 0.00 0.03 0.04
0.00 0.00 0.00 0.00 0.00 0.00 0.00 0.00 0.00 0.00 0.00 0.00 0.00 0.00 0.00 0.00 0.00 0.00 0.00 0.00 0.00 0.00 0.00 0.00 0.00 0.00 0.00 0.00 0.00 0.00 0.00 0.01
0.00 0.00 0.00 0.00 0.00 0.00 0.00 0.00 0.00 0.00 0.00 0.00 0.00 0.00 0.00 0.00 0.00 0.00 0.00 0.00 0.00 0.00 0.00 0.00 0.00 0.00 0.00 0.00 0.00 0.00 0.00 0.00
0.00 0.00 0.00 0.00 0.00 0.00 0.00 0.00 0.00 0.00 0.00 0.00 0.00 0.00 0.00 0.00 0.00 0.00 0.00 0.00 0.00 0.00 0.00 0.00 0.00 0.00 0.00 0.00 0.00 0.00 0.00 0.00
0.00 0.00 0.00 0.00 0.00 0.00 0.00 0.00 0.00 0.00 0.00 0.00 0.00 0.00 0.00 0.00 0.00 0.00 0.00 0.00 0.00 0.00 0.00 0.00 0.00 0.00 0.00 0.00 0.00 0.00 0.00 0.00
0.00 0.00 0.00 0.00 0.00 0.00 0.00 0.00 0.00 0.00 0.00 0.00 0.00 0.00 0.00 0.00 0.00 0.00 0.00 0.00 0.00 0.00 0.00 0.00 0.00 0.00 0.00 0.00 0.00 0.00 0.00 0.00
0.00 0.00 0.00 0.00 0.00 0.00 0.00 0.00 0.00 0.00 0.00 0.00 0.00 0.00 0.00 0.00 0.00 0.00 0.00 0.00 0.00 0.00 0.00 0.00 0.00 0.00 0.00 0.00 0.00 0.00 0.01 0.01
0.00 0.00 0.00 0.00 0.00 0.00 0.00 0.00 0.00 0.00 0.00 0.00 0.00 0.00 0.00 0.00 0.00 0.00 0.00 0.00 0.00 0.00 0.00 0.00 0.00 0.00 0.00 0.00 0.00 0.00 0.01 0.02
0.00 0.00 0.00 0.00 0.00 0.00 0.00 0.00 0.00 0.00 0.00 0.00 0.00 0.00 0.00 0.00 0.00 0.00 0.00 0.00 0.00 0.00 0.00 0.00 0.00 0.00 0.00 0.00 0.00 0.00 0.00 0.00
0.00 0.00 0.00 0.00 0.00 0.00 0.00 0.00 0.00 0.00 0.00 0.00 0.00 0.00 0.00 0.00 0.00 0.00 0.00 0.00 0.00 0.00 0.00 0.00 0.00 0.00 0.00 0.00 0.00 0.00 0.00 0.00
0.00 0.00 0.00 0.00 0.00 0.00 0.00 0.00 0.00 0.00 0.00 0.00 0.00 0.00 0.00 0.00 0.00 0.00 0.00 0.00 0.00 0.00 0.00 0.00 0.00 0.00 0.00 0.00 0.00 0.00 0.00 0.01
0.00 0.00 0.00 0.00 0.00 0.00 0.00 0.00 0.00 0.00 0.00 0.00 0.00 0.00 0.00 0.01 0.00 0.00 0.00 0.00 0.00 0.00 0.00 0.00 0.00 0.00 0.00 0.02 0.02 0.01 0.01 0.00
0.00 0.00 0.00 0.00 0.00 0.00 0.00 0.00 0.00 0.00 0.00 0.00 0.00 0.00 0.00 0.00 0.00 0.00 0.00 0.01 0.01 0.02 0.01 0.01 0.01 0.01 0.01 0.04 0.02 0.01 0.01 0.00
0.00 0.00 0.00 0.00 0.00 0.00 0.00 0.00 0.00 0.00 0.00 0.00 0.00 0.00 0.00 0.01 0.01 0.01 0.01 0.01 0.02 0.02 0.02 0.04 0.03 0.05 0.03 0.02 0.00 0.00 0.01 0.00
0.00 0.00 0.00 0.00 0.00 0.00 0.00 0.00 0.00 0.00 0.00 0.00 0.00 0.00 0.00 0.01 0.01 0.01 0.02 0.02 0.11 0.14 0.10 0.09 0.13 0.11 0.10 0.07 0.05 0.02 0.04 0.02
0.00 0.00 0.00 0.00 0.00 0.00 0.00 0.00 0.00 0.00 0.00 0.00 0.00 0.01 0.01 0.01 0.02 0.05 0.11 0.05 0.02 0.09 0.15 0.14 0.15 0.16 0.10 0.04 0.03 0.05 0.05 0.03
0.00 0.00 0.00 0.00 0.00 0.00 0.00 0.00 0.00 0.01 0.01 0.01 0.02 0.02 0.03 0.05 0.10 0.12 0.12 0.08 0.03 0.03 0.03 0.03 0.02 0.03 0.05 0.06 0.04 0.03 0.02 0.02
0.00 0.00 0.00 0.01 0.01 0.01 0.01 0.02 0.04 0.07 0.07 0.09 0.11 0.11 0.08 0.20 0.21 0.26 0.30 0.38 0.40 0.22 0.04 0.02 0.02 0.02 0.03 0.03 0.03 0.04 0.07 0.08
0.01 0.01 0.01 0.00 0.01 0.03 0.05 0.03 0.05 0.09 0.08 0.10 0.14 0.14 0.16 0.23 0.24 0.22 0.43 0.59 0.57 0.45 0.05 0.02 0.02 0.02 0.04 0.05 0.03 0.03 0.05 0.08
MSLP
1008.00 1009.09 1009.61 1009.99 1010.42 1010.78 1011.14 1011.44 1011.65 1011.97 1012.26 1012.52 1012.68 1013.01 1013.44 1013.69 1013.87 1014.00 1014.15 1014.38 1014.68 1014.95 1015.20 1015.44 1015.65 1015.79 1015.90 1015.94 1015.79 1015.48 1015.22 1013.95
1008.14 1008.86 1009.29 1009.66 1010.28 1010.90 1011.23 1011.54 1011.86 1012.18 1012.55 1012.82 1013.07 1013.35 1013.52 1013.65 1013.85 1014.12 1014.34 1014.63 1014.89 1015.14 1015.41 1015.67 1015.82 1016.01 1016.07 1016.08 1015.88 1015.58 1015.14 1015.38
1008.08 1008.55 1008.89 1009.17 1009.66 1010.46 1011.33 1011.70 1011.94 1012.26 1012.62 1013.03 1013.29 1013.03 1013.37 1013.70 1013.65 1013.89 1014.31 1014.60 1014.86 1015.13 1015.45 1015.75 1015.99 1016.18 1016.30 1016.30 1016.09 1014.89 1014.55 1015.07
1008.06 1008.31 1008.63 1008.85 1009.02 1009.72 1010.74 1011.11 1011.49 1011.76 1012.01 1012.42 1012.70 1012.56 1012.61 1012.75 1013.24 1014.02 1014.39 1014.65 1014.86 1015.12 1015.44 1015.78 1015.90 1015.41 1015.97 1016.47 1015.67 1014.68 1014.78 1014.69
1007.54 1008.22 1009.01 1009.26 1009.06 1009.48 1009.95 1010.21 1010.70 1011.04 1011.31 1011.58 1012.18 1011.91 1011.94 1012.61 1012.97 1013.76 1014.09 1014.72 1014.64 1015.04 1015.28 1015.17 1014.87 1014.35 1014.59 1015.25 1014.97 1014.82 1014.57 1014.73
1006.99 1008.00 1008.79 1009.24 1008.91 1009.29 1009.68 1009.46 1009.81 1010.26 1010.58 1011.06 1011.26 1011.44 1011.31 1011.71 1011.87 1012.87 1013.32 1013.48 1013.48 1014.06 1014.14 1014.20 1014.00 1014.09 1014.28 1014.28 1014.48 1014.41 1014.72 1014.76
1006.48 1007.40 1008.12 1008.75 1008.96 1008.79 1009.07 1009.20 1009.28 1009.36 1009.77 1010.29 1010.65 1010.89 1011.14 1011.18 1011.32 1011.87 1012.42 1012.56 1012.99 1013.05 1013.05 1013.64 1013.58 1013.53 1013.83 1013.99 1014.24 1014.38 1014.78 1015.19
1005.88 1006.85 1007.70 1008.33 1008.73 1008.59 1008.68 1009.01 1009.24 1009.47 1009.30 1009.61 1010.41 1010.79 1011.21 1011.08 1011.00 1011.20 1011.65 1011.89 1012.24 1012.48 1012.73 1012.83 1013.27 1013.98 1013.81 1013.91 1014.16 1014.44 1014.66 1015.05
1006.22 1006.06 1006.93 1007.73 1008.13 1008.44 1008.42 1008.44 1008.64 1008.77 1008.77 1009.02 1009.88 1010.66 1010.25 1010.60 1010.80 1010.69 1010.86 1011.35 1011.85 1012.17 1012.37 1012.53 1012.75 1013.16 1013.70 1013.99 1013.93 1014.11 1014.56 1015.05
1007.29 1006.69 1006.17 1006.91 1007.59 1007.86 1007.97 1007.83 1007.87 1007.98 1008.20 1008.33 1008.91 1010.08 1010.12 1010.05 1010.45 1010.17 1010.24 1010.76 1011.46 1011.84 1012.01 1012.26 1012.45 1012.71 1013.04 1013.77 1013.97 1013.76 1014.19 1014.95
1008.56 1008.09 1007.39 1006.82 1006.79 1007.25 1007.31 1007.41 1007.41 1007.24 1007.33 1007.56 1007.92 1009.04 1009.98 1009.79 1010.12 1009.63 1009.71 1010.35 1010.97 1011.46 1011.63 1011.82 1012.18 1012.43 1012.58 1013.12 1013.63 1013.79 1013.96 1014.42
1009.25 1008.86 1008.40 1007.73 1007.29 1006.73 1006.82 1006.87 1007.01 1006.68 1006.46 1006.67 1007.08 1007.79 1008.88 1009.45 1009.56 1009.26 1009.69 1009.88 1010.59 1011.06 1011.27 1011.60 1012.04 1012.32 1011.93 1012.39 1013.09 1013.74 1013.89 1014.11
1010.43 1009.58 1008.98 1008.17 1007.19 1006.72 1006.17 1006.10 1005.94 1005.89 1005.98 1006.06 1006.28 1006.55 1007.90 1008.89 1009.02 1009.00 1009.29 1009.60 1010.10 1010.61 1011.07 1011.49 1011.80 1012.31 1012.35 1012.56 1013.26 1013.54 1013.90 1013.87
1012.08 1011.15 1009.40 1008.67 1007.63 1006.36 1005.70 1005.04 1004.78 1004.79 1005.00 1005.23 1005.59 1005.93 1006.54 1007.38 1008.25 1008.32 1008.50 1009.20 1009.72 1010.08 1010.69 1011.31 1011.66 1012.08 1012.14 1012.63 1013.18 1013.75 1013.47 1013.63
1013.55 1012.67 1011.15 1009.07 1007.99 1006.83 1005.63 1004.96 1004.33 1004.16 1004.16 1004.28 1004.51 1004.96 1005.48 1006.31 1007.23 1007.55 1007.77 1008.18 1008.60 1009.42 1010.11 1010.83 1011.56 1012.25 1012.24 1012.37 1012.87 1012.55 1013.01 1013.06
1014.84 1014.09 1012.75 1010.68 1008.92 1006.71 1005.70 1004.76 1003.78 1003.16 1003.36 1003.52 1003.80 1004.13 1004.65 1005.32 1006.02 1006.57 1006.91 1007.31 1007.66 1008.10 1009.11 1009.95 1010.95 1011.59 1012.36 1012.31 1011.71 1011.58 1011.64 1011.92
1015.54 1015.06 1013.85 1012.55 1011.32 1009.31 1007.57 1005.31 1003.74 1003.34 1002.31 1002.60 1003.03 1003.61 1003.97 1004.69 1005.20 1005.68 1006.11 1006.56 1007.04 1007.76 1008.24 1009.12 1009.51 1008.53 1011.25 1011.95 1012.01 1011.71 1011.40 1011.62
1016.13 1015.49 1014.52 1013.69 1012.59 1010.89 1009.31 1007.17 1004.35 1002.81 1001.84 1001.65 1002.59 1003.24 1003.70 1004.05 1004.39 1004.97 1005.45 1005.72 1006.42 1007.29 1008.24 1008.83 1009.32 1008.73 1010.05 1010.71 1011.21 1011.12 1010.84 1010.94
1016.34 1016.00 1015.15 1014.36 1013.44 1012.08 1010.25 1008.23 1005.96 1003.41 1002.01 1001.62 1002.43 1002.83 1003.16 1003.27 1003.91 1004.35 1004.84 1005.62 1006.26 1006.71 1006.19 1007.13 1008.28 1008.85 1009.67 1009.77 1010.55 1010.65 1010.32 1010.31
1016.93 1016.61 1015.94 1014.83 1014.15 1012.88 1010.98 1009.29 1007.43 1004.66 1002.45 1002.29 1002.46 1003.11 1003.61 1003.68 1003.89 1004.57 1005.11 1005.50 1006.06 1005.27 1004.97 1007.11 1008.21 1008.59 1008.67 1009.31 1009.88 1009.96 1010.08 1009.97
Thickness
5766 5756 5752 5750 5746 5742 5739 5736 5733 5730 5727 5725 5724 5721 5717 5714 5711 5709 5707 5703 5699 5695 5692 5688 5686 5683 5681 5678 5676 5675 5674 5680
5761 5753 5748 5746 5741 5738 5735 5731 5728 5724 5720 5717 5716 5713 5712 5710 5708 5704 5701 5698 5694 5691 5686 5682 5681 5678 5676 5674 5673 5672 5672 5669
5755 5751 5747 5743 5739 5735 5730 5726 5723 5719 5715 5711 5709 5710 5707 5704 5703 5702 5698 5695 5691 5687 5683 5679 5676 5673 5671 5670 5669 5674 5675 5669
5748 5748 5745 5741 5738 5732 5726 5724 5720 5717 5713 5709 5708 5709 5708 5706 5702 5696 5693 5690 5687 5684 5680 5676 5673 5674 5669 5666 5668 5674 5670 5668
5747 5741 5734 5732 5733 5728 5724 5724 5721 5718 5714 5710 5706 5708 5708 5702 5699 5693 5689 5684 5683 5680 5677 5675 5676 5680 5677 5670 5670 5670 5669 5664
5743 5736 5729 5724 5726 5724 5719 5723 5722 5718 5714 5710 5707 5706 5707 5704 5703 5694 5690 5688 5687 5682 5681 5680 5680 5677 5676 5674 5671 5669 5667 5663
5737 5733 5728 5722 5719 5721 5719 5717 5718 5718 5715 5710 5706 5705 5703 5703 5702 5697 5691 5689 5685 5685 5685 5680 5680 5679 5676 5673 5670 5667 5663 5657
5732 5726 5722 5717 5713 5715 5714 5711 5708 5708 5712 5709 5702 5698 5695 5697 5699 5697 5693 5690 5686 5683 5682 5682 5678 5671 5673 5671 5667 5665 5661 5656
5716 5721 5718 5712 5709 5707 5707 5707 5705 5706 5710 5708 5701 5694 5697 5696 5693 5695 5694 5689 5684 5681 5679 5676 5676 5673 5669 5667 5666 5662 5658 5652
5699 5707 5713 5708 5703 5703 5702 5704 5704 5703 5705 5706 5703 5694 5692 5694 5689 5692 5690 5688 5682 5679 5676 5672 5671 5670 5667 5662 5662 5662 5658 5650
5677 5682 5688 5696 5700 5697 5697 5698 5698 5701 5702 5704 5703 5695 5687 5688 5685 5690 5688 5685 5680 5676 5673 5671 5666 5665 5665 5662 5658 5657 5656 5651
5661 5665 5668 5675 5681 5689 5689 5691 5692 5697 5702 5704 5702 5697 5690 5684 5683 5684 5681 5679 5676 5674 5669 5667 5663 5661 5664 5660 5657 5651 5651 5648
5641 5648 5652 5659 5666 5670 5677 5680 5688 5692 5694 5697 5698 5695 5689 5681 5679 5679 5677 5672 5671 5668 5664 5657 5656 5656 5652 5651 5648 5647 5644 5646
5614 5622 5638 5643 5652 5663 5670 5678 5684 5689 5691 5692 5692 5691 5690 5686 5677 5676 5675 5668 5665 5663 5658 5649 5649 5649 5647 5640 5634 5634 5642 5640
5590 5596 5610 5628 5636 5648 5658 5666 5675 5678 5682 5685 5690 5689 5688 5683 5676 5673 5672 5668 5663 5656 5651 5644 5638 5635 5639 5636 5623 5629 5632 5636
5568 5573 5584 5600 5616 5632 5641 5649 5659 5673 5674 5679 5681 5682 5681 5677 5672 5669 5667 5663 5659 5656 5648 5641 5634 5630 5626 5628 5637 5641 5633 5631
5546 5551 5561 5573 5582 5600 5616 5638 5656 5661 5671 5671 5672 5672 5673 5669 5665 5664 5659 5655 5654 5646 5643 5637 5636 5647 5620 5620 5621 5627 5631 5628
5525 5531 5538 5545 5556 5571 5586 5607 5637 5651 5662 5665 5661 5660 5659 5660 5660 5657 5652 5651 5644 5637 5627 5625 5625 5635 5625 5619 5615 5617 5624 5626
5503 5507 5517 5523 5531 5544 5561 5581 5605 5632 5647 5651 5647 5645 5648 5653 5651 5648 5644 5637 5634 5617 5623 5628 5624 5622 5617 5615 5610 5613 5622 5625
5477 5481 5489 5500 5507 5520 5539 5553 5572 5604 5628 5630 5633 5629 5631 5638 5636 5632 5627 5623 5613 5605 5631 5621 5610 5607 5609 5608 5603 5610 5612 5618